This is the latest recevied weather packets stored in our database for station/object N1OF. If no packets are shown the sender has not sent any weather packets the latest 10 day(s).
| Time | Temp. | Humidity | Pressure | Rain* | Wind** | Luminosity | Snow |
|---|---|---|---|---|---|---|---|
| 1778005780 | 11.11° C | 88% | 1009 hPa | 1.78 mm | - | - | - |
| 1778005477 | 11.67° C | 88% | 1008.8 hPa | 0 mm | - | - | - |
| 1778005172 | 11.67° C | 88% | 1008.9 hPa | 0 mm | - | - | - |
| 1778004870 | 11.67° C | 88% | 1008.9 hPa | 0 mm | - | - | - |
| 1778004567 | 11.67° C | 88% | 1008.8 hPa | 0 mm | - | - | - |
| 1778004263 | 11.67° C | 88% | 1008.7 hPa | 1.27 mm | - | - | - |
| 1778003960 | 12.22° C | 89% | 1008.7 hPa | 1.78 mm | - | - | - |
| 1778003656 | 12.22° C | 89% | 1008.7 hPa | 1.78 mm | - | - | - |
| 1778003352 | 12.22° C | 89% | 1008.7 hPa | 3.05 mm | - | - | - |
| 1778003050 | 12.78° C | 90% | 1008.5 hPa | 4.32 mm | - | - | - |
| 1778002741 | 12.78° C | 89% | 1008.8 hPa | 3.05 mm | - | - | - |
| 1778002437 | 12.78° C | 89% | 1008.9 hPa | 1.27 mm | - | - | - |
| 1778002134 | 12.78° C | 88% | 1008.6 hPa | 3.05 mm | - | - | - |
| 1778001832 | 12.78° C | 88% | 1009.1 hPa | 3.56 mm | - | - | - |
| 1778001531 | 13.33° C | 87% | 1008.9 hPa | 3.05 mm | - | - | - |
| 1778001229 | 13.33° C | 86% | 1008.8 hPa | 3.05 mm | - | - | - |
| 1778000925 | 13.89° C | 85% | 1008.9 hPa | 3.05 mm | - | - | - |
| 1778000622 | 14.44° C | 84% | 1008.8 hPa | 0 mm | - | - | - |
| 1778000317 | 15° C | 82% | 1009.1 hPa | 0 mm | - | - | - |
| 1778000013 | 15° C | 80% | 1009 hPa | 0 mm | - | - | - |
| 1777999709 | 15° C | 78% | 1009.1 hPa | 0 mm | - | - | - |
| 1777999405 | 15° C | 77% | 1008.9 hPa | 0 mm | - | - | - |
| 1777999103 | 15.56° C | 78% | 1009 hPa | 0 mm | - | - | - |
| 1777998802 | 15.56° C | 78% | 1009 hPa | 0 mm | - | - | - |
| 1777998500 | 15.56° C | 77% | 1008.9 hPa | 0 mm | - | - | - |
* Rain latest hour (hover to see other rain measurements)
** Current wind speed in m/s (hover to see current wind gust speed)